Flag for U.S.A. Weather past 2 weeks in Pueblo, Colorado, U.S.A.

Now
53 °F

Clear.


Feels Like: 53 °F
Forecast: 54 / 87 °F
Wind: No wind

Location: Pueblo Memorial Airport

Current Time: Aug 23, 2014 at 6:24:52 AM

Latest Report: Aug 23, 2014 at 5:53 AM


Visibility: 10 mi

Pressure: 29.82 "Hg

Humidity: 93%

Dew point: 51 °F

Location of PuebloLocation

Historic Weather in Pueblo — Graph

°F

Pueblo temperature yesterday

Maximum temperature yesterday: 80 °F (at 2:53 PM)
Minimum temperature yesterday: 62 °F (at 11:53 PM)
Average temperature yesterday: 72 °F

Past Weeks' High & Low Weather Summary

 TemperatureHumidityPressure
High96 °F (Aug 17, 2:53 PM)97% (Aug 11, 5:53 AM)30.23 "Hg (Aug 11, 5:53 AM)
Low53 °F (Aug 23, 4:53 AM)11% (Aug 18, 3:53 PM)29.62 "Hg (Aug 20, 6:53 PM)
Average75 °F50%29.90 "Hg
* Reported Aug 8 4:53 AM — Aug 23 4:53 AM, Pueblo, Weather by CustomWeather, © 2014

Note: Actual official high and low records may vary slightly from our data, if they occured in-between our weather recording intervals... More about our weather records

Advertising

Pueblo weather history for previous 24 hours

 ConditionsComfort  
Time TempWeatherWind HumidityBarometerVisibility
4:53 AM
Aug 23
53 °FClear.No wind89%29.84 "Hg10 mi
3:53 AM54 °FClear.No wind90%29.84 "Hg10 mi
2:53 AM56 °FClear.3 mph90%29.83 "Hg10 mi
1:53 AM58 °FClear.5 mph87%29.84 "Hg10 mi
12:53 AM58 °FClear.5 mph81%29.84 "Hg10 mi
11:53 PM
Aug 22
62 °FClear.3 mph73%29.84 "Hg10 mi
10:53 PM65 °FClear.No wind63%29.83 "Hg10 mi
9:53 PM67 °FClear.No wind61%29.85 "Hg10 mi
8:53 PM67 °FPartly cloudy.8 mph63%29.84 "Hg10 mi
7:53 PM70 °FOvercast.5 mph49%29.81 "Hg10 mi
6:53 PM74 °FScattered clouds.14 mph46%29.80 "Hg10 mi
5:53 PM75 °FSunny.20 mph45%29.82 "Hg10 mi
4:53 PM70 °FLight rain. More clouds than sun.20 mph61%29.90 "Hg10 mi
3:53 PM76 °FLight rain. More clouds than sun.21 mph47%29.85 "Hg10 mi
2:53 PM80 °FMostly cloudy.10 mph45%29.84 "Hg10 mi
1:53 PM78 °FLight rain. Overcast.3 mph54%29.88 "Hg10 mi
12:53 PM79 °FPartly sunny.3 mph44%29.89 "Hg10 mi
11:53 AM79 °FPartly sunny.5 mph44%29.90 "Hg10 mi
10:53 AM77 °FPartly sunny.No wind45%29.91 "Hg10 mi
9:53 AM75 °FSunny.5 mph48%29.92 "Hg10 mi
8:53 AM74 °FSunny.12 mph50%29.90 "Hg10 mi
7:53 AM71 °FSunny.7 mph55%29.91 "Hg10 mi
6:53 AM69 °FClear.14 mph57%29.89 "Hg10 mi
Weather by CustomWeather, © 2014

See weather overviewHow to use our weather pages